Regional Weather Roundup
Issued by NWS Sterling, VA

Home | Current Version | Previous Version | Graphics & Text | Print | Product List | Glossary On
Versions: 1 2 3 4 5 6 7 8 9 10 11 12 13 14 15 16 17 18 19 20 21 22 23 24 25 26 27 28 29 30 31 32 33 34 35 36 37 38 39 40 41 42 43 44 45 46 47 48 49 50
000
ASUS41 KLWX 042310
RWRLWX

REGIONAL WEATHER ROUNDUP
NATIONAL WEATHER SERVICE BALTIMORE MD/WASHINGTON DC
600 PM EST SUN DEC 04 2016

Note: "FAIR" indicates few or no clouds below 12,000 feet
with no significant weather and/or obstructions to visibility.
 TC=TEMPERATURE CELSIUS

 * =Non NWS site. Station does not report precipitation (e.g. rain,
    snow, etc.), thunder, or fog.

DCZ001-MDZ009-015-VAZ040>042-051-053>054-050000-
WASHINGTON METRO

CITY           SKY/WX    TMP DP  RH WIND       PRES   REMARKS
WASHINGTON NAT CLOUDY    45  31  58 S6        30.19F
DULLES         CLOUDY    42  27  55 S5        30.18S
ANDREWS AFB    CLOUDY    42  30  63 S3        30.17F
FT BELVOIR     CLOUDY    42  30  63 CALM      30.18F
QUANTICO       CLOUDY    45  31  58 S8        30.20F
COLLEGE PARK*  CLOUDY    43  30  61 CALM      30.19S
LEESBURG*      CLOUDY    43  32  65 MISG      30.18S
MANASSAS*      CLOUDY    41  30  65 VRB5      30.17F
GAITHERSBURG*  CLOUDY    41  25  52 CALM      30.20F

$$

MDZ006>007-011-014-050000-
BALTIMORE METRO

CITY           SKY/WX    TMP DP  RH WIND       PRES   REMARKS
BWI AIRPORT    CLOUDY    43  30  60 S3        30.19S
MD SCIENCE CTR   N/A     46  28  49 MISG      30.19F
MARTIN STATE   MOCLDY    45  36  70 CALM      30.21F
ANNAPOLIS      CLOUDY    46  32  58 SE9       30.19F
FORT MEADE*    CLOUDY    39  32  75 CALM      30.21S

$$

MDZ012-015-019>023-050000-
MARYLAND EASTERN SHORE

CITY           SKY/WX    TMP DP  RH WIND       PRES   REMARKS
OCEAN CITY     CLOUDY    42  34  73 CALM      30.21F
SALISBURY      CLOUDY    41  35  79 CALM      30.21S
BAY BRIDGE AP* CLOUDY    43  32  65 SE5       30.20S
CAMBRIDGE*     CLOUDY    37  32  81 CALM      30.20F
EASTON*        CLOUDY    43  30  61 CALM      30.24F

$$

MDZ017>025-050000-
SOUTHERN MARYLAND

CITY           SKY/WX    TMP DP  RH WIND       PRES   REMARKS
PATUXENT RIVER CLOUDY    43  32  65 S3        30.20F
ST INIGOES     CLOUDY    42  35  76 E3        30.20F
LEONARDTOWN*   CLOUDY    41  32  70 CALM      30.21F

$$

MDZ003>005-050000-
NORTH CENTRAL MARYLAND

CITY           SKY/WX    TMP DP  RH WIND       PRES   REMARKS
FREDERICK*     CLEAR     43  30  61 CALM      30.20S
HAGERSTOWN APT CLOUDY    41  27  57 SE5       30.13F
WESTMINSTER*   CLOUDY    39  28  65 CALM      30.15F

$$

MDZ501>502-050000-
WESTERN MARYLAND

CITY           SKY/WX    TMP DP  RH WIND       PRES   REMARKS
OAKLAND*       CLOUDY    30  27  86 SE17G23   29.99S WCI  18
CUMBERLAND*    NOT AVBL

$$

VAZ025>031-050000-
SHENANDOAH VALLEY

CITY           SKY/WX    TMP DP  RH WIND       PRES   REMARKS
WINCHESTER*    CLOUDY    37  28  70 CALM      30.13F
FRONT ROYAL*   FAIR      39  30  70 CALM      30.12F
LURAY*         CLOUDY    39  34  81 CALM      30.12F
NEW MARKET*    CLOUDY    39  30  70 CALM      30.12F
STAUNTON*      CLOUDY    39  28  66 S7        30.14F
WAYNESBORO*    CLOUDY    38  28  67 S5        30.12F

$$

WVZ021-048>050-054>055-050000-
EASTERN WEST VIRGINIA PANHANDLE

CITY           SKY/WX    TMP DP  RH WIND       PRES   REMARKS
MARTINSBURG    CLOUDY    39  28  64 CALM      30.14F
PETERSBURG*    CLOUDY    40  32  70 CALM      30.11R

$$

VAZ036>039-050-050000-
CENTRAL FOOTHILLS

CITY           SKY/WX    TMP DP  RH WIND       PRES   REMARKS
CHARLOTTESVILL CLOUDY    43  29  57 S7        30.16F
CULPEPER*      CLOUDY    43  31  63 CALM      30.18F
ORANGE*          N/A     43  32  65 CALM      30.19F
GORDONSVILLE*  CLOUDY    41  31  65 S3        30.16F
WARRENTON*     CLOUDY    42  27  55 CALM      30.16F

$$

VAZ055>057-050000-
NORTH AND CENTRAL PIEDMONT

CITY           SKY/WX    TMP DP  RH WIND       PRES   REMARKS
FREDERICKSBRG* CLOUDY    44  33  66 S6        30.19S
STAFFORD*      CLOUDY    42  32  69 S3        30.22F

$$

NCZ024-NYZ072-PAZ021-071-VAZ022-071-050000-
OTHER REGIONAL OBSERVATIONS

CITY           SKY/WX    TMP DP  RH WIND       PRES   REMARKS
NEW YORK CITY  PTCLDY    42  21  43 NE3       30.21S
PHILADELPHIA   MOCLDY    44  26  49 S3        30.19F
PITTSBURGH     CLOUDY    41  29  62 E8        29.98F
ROANOKE        LGT RAIN  37  35  92 SE8       30.16F
RICHMOND       LGT RAIN  42  32  67 SE3       30.21R
RALEIGH        LGT RAIN  43  40  89 SE3       30.19F FOG

$$

ANZ530>537-050000-
MARINE OBSERVATIONS

STATION/POSITION TIME  TEMP    WIND        PRES
                       AIR SEA DIR/SP/G
                 (UTC) (F)     (DEG/KT/KT) (MB)
THOMAS PT LIGHT  2300   45 49  160/  8/ 10   N/A
BALT KEY BRIDGE  2236   44     140/ 10/ 11 1022.4F
COVE POINT       2236   44     190/  6/  7 1023.3F
LEWISETTA        2236   44 48  170/  4/  5 1022.5F
SOLOMONS ISLAND  2236   44 51  170/  4/  5   N/A
PINEY POINT      2236          180/  5/  6   N/A

$$




USA.gov is the U.S. government's official web portal to all federal, state and local government web resources and services.